Wetterdaten: aktuell Montag, 19.08.2019 09:14
Datum Zeit Temp. I. Temp. 2m Temp. 5cm Feuchte I. Feuchte 2m Luftdruck Regen Wind Richtung Richtung Taupunkt Windchill Windben
19.08.2019 09:14 22,7 C 17,8 C 19,5 C 64 % 75 % 1021,2 hPa 0,0 l/m 3,5 km/h (1 Bft) W-SW 247 13,3 C 17,8 C 5,4 km/h (1 Bft)
19.08.2019 09:12 22,7 C 17,7 C 19,4 C 64 % 75 % 1021,2 hPa 0,0 l/m 3,7 km/h (1 Bft) W-SW 247 13,2 C 17,7 C 5,4 km/h (1 Bft)
19.08.2019 09:10 22,7 C 17,7 C 19,1 C 64 % 74 % 1021,4 hPa 0,0 l/m 3,9 km/h (1 Bft) SW 225 13,0 C 17,7 C 3,5 km/h (1 Bft)
19.08.2019 09:08 22,7 C 17,6 C 18,8 C 64 % 74 % 1021,4 hPa 0,0 l/m 3,9 km/h (1 Bft) SW 225 12,9 C 17,6 C 5,8 km/h (2 Bft)
19.08.2019 09:06 22,7 C 17,5 C 18,8 C 64 % 74 % 1021,4 hPa 0,0 l/m 4,2 km/h (1 Bft) W-SW 247 12,8 C 17,5 C 7,9 km/h (2 Bft)
19.08.2019 09:04 22,7 C 17,5 C 19,0 C 64 % 73 % 1021,4 hPa 0,0 l/m 4,2 km/h (1 Bft) S 180 12,6 C 17,5 C 7,9 km/h (2 Bft)
19.08.2019 09:02 22,7 C 17,5 C 18,8 C 64 % 73 % 1021,4 hPa 0,0 l/m 4,0 km/h (1 Bft) SW 225 12,6 C 17,5 C 7,3 km/h (2 Bft)
19.08.2019 09:00 22,7 C 17,4 C 18,6 C 64 % 73 % 1021,4 hPa 0,0 l/m 4,2 km/h (1 Bft) SW 225 12,5 C 17,4 C 5,4 km/h (1 Bft)
19.08.2019 08:58 22,7 C 17,4 C 18,7 C 64 % 73 % 1021,4 hPa 0,0 l/m 4,3 km/h (1 Bft) SW 225 12,5 C 17,4 C 5,4 km/h (1 Bft)
19.08.2019 08:56 22,7 C 17,4 C 18,7 C 64 % 73 % 1021,4 hPa 0,0 l/m 4,5 km/h (1 Bft) SW 225 12,5 C 17,4 C 7,3 km/h (2 Bft)
19.08.2019 08:54 22,7 C 17,4 C 18,5 C 64 % 73 % 1021,4 hPa 0,0 l/m 4,3 km/h (1 Bft) SW 225 12,5 C 17,4 C 7,3 km/h (2 Bft)
19.08.2019 08:52 22,7 C 17,4 C 18,4 C 64 % 73 % 1021,4 hPa 0,0 l/m 4,0 km/h (1 Bft) SW 225 12,5 C 17,4 C 7,9 km/h (2 Bft)
19.08.2019 08:50 22,7 C 17,3 C 18,5 C 64 % 73 % 1021,4 hPa 0,0 l/m 3,5 km/h (1 Bft) W-SW 247 12,4 C 17,3 C 7,9 km/h (2 Bft)
19.08.2019 08:48 22,7 C 17,4 C 18,6 C 64 % 72 % 1021,4 hPa 0,0 l/m 2,7 km/h (1 Bft) S 180 12,3 C 17,4 C 6,0 km/h (2 Bft)
19.08.2019 08:46 22,7 C 17,4 C 18,6 C 64 % 72 % 1021,4 hPa 0,0 l/m 2,1 km/h (1 Bft) SW 225 12,3 C 17,4 C 4,2 km/h (1 Bft)
19.08.2019 08:44 22,7 C 17,4 C 18,7 C 64 % 72 % 1021,4 hPa 0,0 l/m 2,1 km/h (1 Bft) W 270 12,3 C 17,4 C 4,2 km/h (1 Bft)
19.08.2019 08:42 22,7 C 17,3 C 18,7 C 64 % 72 % 1021,4 hPa 0,0 l/m 2,4 km/h (1 Bft) N-NW 337 12,2 C 17,3 C 4,2 km/h (1 Bft)
19.08.2019 08:40 22,7 C 17,3 C 18,8 C 64 % 72 % 1021,4 hPa 0,0 l/m 2,7 km/h (1 Bft) W-SW 247 12,2 C 17,3 C 4,2 km/h (1 Bft)
19.08.2019 08:38 22,7 C 17,2 C 18,4 C 64 % 73 % 1021,4 hPa 0,0 l/m 3,2 km/h (1 Bft) W-NW 292 12,3 C 17,2 C 5,2 km/h (1 Bft)
19.08.2019 08:36 22,7 C 17,2 C 18,3 C 64 % 73 % 1021,4 hPa 0,0 l/m 3,7 km/h (1 Bft) SW 225 12,3 C 17,2 C 6,4 km/h (2 Bft)
19.08.2019 08:34 22,7 C 17,1 C 17,8 C 64 % 73 % 1021,4 hPa 0,0 l/m 3,9 km/h (1 Bft) W-SW 247 12,2 C 17,1 C 6,4 km/h (2 Bft)
19.08.2019 08:32 22,7 C 17,0 C 17,8 C 64 % 73 % 1021,4 hPa 0,0 l/m 3,9 km/h (1 Bft) SW 225 12,1 C 17,0 C 6,6 km/h (2 Bft)
19.08.2019 08:30 22,7 C 17,0 C 17,6 C 64 % 73 % 1020,9 hPa 0,0 l/m 4,5 km/h (1 Bft) W-SW 247 12,1 C 17,0 C 7,0 km/h (2 Bft)
19.08.2019 08:28 22,7 C 17,0 C 17,6 C 64 % 73 % 1020,9 hPa 0,0 l/m 4,7 km/h (1 Bft) SW 225 12,1 C 17,0 C 7,0 km/h (2 Bft)
19.08.2019 08:26 22,7 C 17,0 C 17,6 C 64 % 73 % 1020,9 hPa 0,0 l/m 4,8 km/h (1 Bft) S-SW 202 12,1 C 17,0 C 7,0 km/h (2 Bft)
19.08.2019 08:24 22,7 C 17,1 C 17,6 C 64 % 73 % 1020,9 hPa 0,0 l/m 4,5 km/h (1 Bft) S 180 12,2 C 17,1 C 6,8 km/h (2 Bft)
19.08.2019 08:22 22,7 C 17,1 C 17,7 C 64 % 73 % 1020,9 hPa 0,0 l/m 4,5 km/h (1 Bft) SW 225 12,2 C 17,1 C 8,5 km/h (2 Bft)
19.08.2019 08:20 22,7 C 17,1 C 18,0 C 64 % 73 % 1020,9 hPa 0,0 l/m 4,5 km/h (1 Bft) S-SW 202 12,2 C 17,1 C 8,7 km/h (2 Bft)
19.08.2019 08:18 22,7 C 17,2 C 18,2 C 64 % 73 % 1020,9 hPa 0,0 l/m 3,9 km/h (1 Bft) W-SW 247 12,3 C 17,2 C 8,7 km/h (2 Bft)
19.08.2019 08:16 22,7 C 17,1 C 18,3 C 64 % 74 % 1020,9 hPa 0,0 l/m 3,7 km/h (1 Bft) SW 225 12,4 C 17,1 C 7,3 km/h (2 Bft)
19.08.2019 08:14 22,7 C 17,1 C 18,3 C 64 % 74 % 1020,9 hPa 0,0 l/m 3,5 km/h (1 Bft) SW 225 12,4 C 17,1 C 6,8 km/h (2 Bft)
19.08.2019 08:12 22,7 C 17,1 C 18,2 C 64 % 74 % 1020,9 hPa 0,0 l/m 3,9 km/h (1 Bft) SW 225 12,4 C 17,1 C 6,8 km/h (2 Bft)
19.08.2019 08:10 22,7 C 17,0 C 18,2 C 64 % 73 % 1021,0 hPa 0,0 l/m 4,2 km/h (1 Bft) W-SW 247 12,1 C 17,0 C 6,8 km/h (2 Bft)
19.08.2019 08:08 22,7 C 17,0 C 17,9 C 64 % 73 % 1021,0 hPa 0,0 l/m 4,0 km/h (1 Bft) W-SW 247 12,1 C 17,0 C 4,4 km/h (1 Bft)
19.08.2019 08:06 22,7 C 16,9 C 17,7 C 64 % 74 % 1021,0 hPa 0,0 l/m 4,7 km/h (1 Bft) SW 225 12,2 C 16,9 C 6,6 km/h (2 Bft)
19.08.2019 08:04 22,7 C 16,9 C 17,6 C 64 % 74 % 1021,0 hPa 0,0 l/m 5,0 km/h (1 Bft) SW 225 12,2 C 16,9 C 6,6 km/h (2 Bft)
19.08.2019 08:02 22,7 C 16,9 C 17,5 C 64 % 74 % 1021,0 hPa 0,0 l/m 5,1 km/h (1 Bft) S 180 12,2 C 16,9 C 7,0 km/h (2 Bft)
19.08.2019 08:00 22,7 C 17,0 C 17,4 C 64 % 74 % 1021,0 hPa 0,0 l/m 5,1 km/h (1 Bft) S 180 12,3 C 17,0 C 7,0 km/h (2 Bft)
19.08.2019 07:58 22,7 C 17,0 C 17,4 C 64 % 73 % 1021,0 hPa 0,0 l/m 5,1 km/h (1 Bft) SW 225 12,1 C 17,0 C 7,1 km/h (2 Bft)
19.08.2019 07:56 22,7 C 17,0 C 17,5 C 64 % 73 % 1021,0 hPa 0,0 l/m 5,0 km/h (1 Bft) S 180 12,1 C 17,0 C 8,5 km/h (2 Bft)
19.08.2019 07:54 22,6 C 17,1 C 17,5 C 64 % 73 % 1021,0 hPa 0,0 l/m 5,0 km/h (1 Bft) SW 225 12,2 C 17,1 C 8,5 km/h (2 Bft)
19.08.2019 07:52 22,7 C 17,1 C 17,5 C 64 % 72 % 1021,0 hPa 0,0 l/m 4,8 km/h (1 Bft) W-SW 247 12,0 C 17,1 C 7,7 km/h (2 Bft)
19.08.2019 07:50 22,6 C 17,1 C 17,4 C 64 % 72 % 1020,8 hPa 0,0 l/m 4,7 km/h (1 Bft) SW 225 12,0 C 17,1 C 7,1 km/h (2 Bft)
19.08.2019 07:48 22,7 C 17,1 C 17,4 C 64 % 72 % 1020,8 hPa 0,0 l/m 3,7 km/h (1 Bft) S-SW 202 12,0 C 17,1 C 7,5 km/h (2 Bft)
19.08.2019 07:46 22,7 C 17,1 C 17,5 C 64 % 71 % 1020,8 hPa 0,0 l/m 3,1 km/h (1 Bft) SW 225 11,8 C 17,1 C 7,5 km/h (2 Bft)
19.08.2019 07:44 22,7 C 17,1 C 17,3 C 64 % 70 % 1020,8 hPa 0,0 l/m 2,1 km/h (1 Bft) SW 225 11,6 C 17,1 C 7,7 km/h (2 Bft)
19.08.2019 07:42 22,7 C 17,2 C 17,5 C 64 % 70 % 1020,8 hPa 0,0 l/m 1,6 km/h (1 Bft) W-SW 247 11,7 C 17,2 C 7,7 km/h (2 Bft)
19.08.2019 07:40 22,6 C 17,2 C 17,4 C 64 % 69 % 1020,8 hPa 0,0 l/m 1,0 km/h (0 Bft) W-SW 247 11,5 C 17,2 C 4,4 km/h (1 Bft)
19.08.2019 07:38 22,7 C 17,2 C 17,3 C 64 % 69 % 1020,8 hPa 0,0 l/m 1,1 km/h (1 Bft) W-NW 292 11,5 C 17,2 C 0,0 km/h (0 Bft)
19.08.2019 07:36 22,7 C 17,2 C 17,4 C 64 % 69 % 1020,8 hPa 0,0 l/m 1,8 km/h (1 Bft) S-SW 202 11,5 C 17,2 C 2,5 km/h (1 Bft)
19.08.2019 07:34 22,7 C 17,2 C 17,4 C 64 % 69 % 1020,8 hPa 0,0 l/m 2,3 km/h (1 Bft) SW 225 11,5 C 17,2 C 2,5 km/h (1 Bft)
19.08.2019 07:32 22,7 C 17,2 C 17,2 C 64 % 69 % 1020,8 hPa 0,0 l/m 2,9 km/h (1 Bft) SW 225 11,5 C 17,2 C 3,9 km/h (1 Bft)
19.08.2019 07:30 22,7 C 17,2 C 17,1 C 64 % 70 % 1020,6 hPa 0,0 l/m 3,4 km/h (1 Bft) W 270 11,7 C 17,2 C 4,1 km/h (1 Bft)
19.08.2019 07:28 22,7 C 17,2 C 17,1 C 64 % 70 % 1020,6 hPa 0,0 l/m 3,7 km/h (1 Bft) W-SW 247 11,7 C 17,2 C 4,1 km/h (1 Bft)
19.08.2019 07:26 22,6 C 17,2 C 17,2 C 64 % 70 % 1020,6 hPa 0,0 l/m 3,7 km/h (1 Bft) SW 225 11,7 C 17,2 C 3,7 km/h (1 Bft)
19.08.2019 07:24 22,7 C 17,2 C 17,2 C 64 % 70 % 1020,6 hPa 0,0 l/m 3,7 km/h (1 Bft) SW 225 11,7 C 17,2 C 7,0 km/h (2 Bft)
19.08.2019 07:22 22,7 C 17,2 C 17,2 C 64 % 70 % 1020,6 hPa 0,0 l/m 3,5 km/h (1 Bft) W-SW 247 11,7 C 17,2 C 7,0 km/h (2 Bft)
19.08.2019 07:20 22,7 C 17,2 C 17,0 C 64 % 70 % 1020,6 hPa 0,0 l/m 3,5 km/h (1 Bft) S-SW 202 11,7 C 17,2 C 7,3 km/h (2 Bft)
19.08.2019 07:18 22,7 C 17,2 C 16,9 C 64 % 70 % 1020,6 hPa 0,0 l/m 3,5 km/h (1 Bft) W-SW 247 11,7 C 17,2 C 7,3 km/h (2 Bft)
19.08.2019 07:16 22,7 C 17,2 C 16,9 C 64 % 69 % 1020,6 hPa 0,0 l/m 3,1 km/h (1 Bft) W-SW 247 11,5 C 17,2 C 4,6 km/h (1 Bft)
19.08.2019 07:14 22,7 C 17,2 C 16,9 C 64 % 69 % 1020,6 hPa 0,0 l/m 2,9 km/h (1 Bft) S-SW 202 11,5 C 17,2 C 4,1 km/h (1 Bft)
19.08.2019 07:12 22,6 C 17,2 C 16,8 C 64 % 69 % 1020,6 hPa 0,0 l/m 3,4 km/h (1 Bft) SW 225 11,5 C 17,2 C 3,5 km/h (1 Bft)
19.08.2019 07:10 22,6 C 17,2 C 16,7 C 64 % 69 % 1020,8 hPa 0,0 l/m 3,4 km/h (1 Bft) SW 225 11,5 C 17,2 C 5,4 km/h (1 Bft)
19.08.2019 07:08 22,7 C 17,2 C 16,6 C 64 % 69 % 1020,8 hPa 0,0 l/m 3,5 km/h (1 Bft) SW 225 11,5 C 17,2 C 5,4 km/h (1 Bft)
19.08.2019 07:06 22,7 C 17,2 C 16,6 C 64 % 69 % 1020,8 hPa 0,0 l/m 3,4 km/h (1 Bft) SW 225 11,5 C 17,2 C 7,9 km/h (2 Bft)
19.08.2019 07:04 22,6 C 17,2 C 16,5 C 64 % 69 % 1020,8 hPa 0,0 l/m 4,3 km/h (1 Bft) W-SW 247 11,5 C 17,2 C 7,9 km/h (2 Bft)
19.08.2019 07:02 22,7 C 17,2 C 16,5 C 64 % 69 % 1020,8 hPa 0,0 l/m 4,3 km/h (1 Bft) W-SW 247 11,5 C 17,2 C 7,9 km/h (2 Bft)
19.08.2019 07:00 22,7 C 17,3 C 16,5 C 64 % 69 % 1020,8 hPa 0,0 l/m 4,2 km/h (1 Bft) SW 225 11,6 C 17,3 C 5,8 km/h (2 Bft)
19.08.2019 06:58 22,6 C 17,3 C 16,5 C 64 % 69 % 1020,8 hPa 0,0 l/m 4,0 km/h (1 Bft) W-SW 247 11,6 C 17,3 C 9,1 km/h (2 Bft)
19.08.2019 06:56 22,7 C 17,3 C 16,5 C 64 % 69 % 1020,8 hPa 0,0 l/m 4,5 km/h (1 Bft) W-SW 247 11,6 C 17,3 C 9,1 km/h (2 Bft)
19.08.2019 06:54 22,6 C 17,3 C 16,5 C 64 % 68 % 1020,8 hPa 0,0 l/m 4,2 km/h (1 Bft) W 270 11,3 C 17,3 C 8,5 km/h (2 Bft)
19.08.2019 06:52 22,7 C 17,3 C 16,6 C 64 % 68 % 1020,8 hPa 0,0 l/m 3,7 km/h (1 Bft) W 270 11,3 C 17,3 C 5,6 km/h (1 Bft)
19.08.2019 06:50 22,7 C 17,4 C 16,6 C 64 % 68 % 1020,6 hPa 0,0 l/m 4,2 km/h (1 Bft) W-NW 292 11,4 C 17,4 C 7,0 km/h (2 Bft)
19.08.2019 06:48 22,6 C 17,4 C 16,6 C 64 % 68 % 1020,6 hPa 0,0 l/m 4,3 km/h (1 Bft) W-SW 247 11,4 C 17,4 C 7,0 km/h (2 Bft)
19.08.2019 06:46 22,7 C 17,4 C 16,6 C 64 % 68 % 1020,6 hPa 0,0 l/m 4,8 km/h (1 Bft) SW 225 11,4 C 17,4 C 7,3 km/h (2 Bft)
19.08.2019 06:44 22,7 C 17,5 C 16,7 C 64 % 68 % 1020,6 hPa 0,0 l/m 5,5 km/h (1 Bft) W 270 11,5 C 17,5 C 7,3 km/h (2 Bft)
19.08.2019 06:42 22,7 C 17,5 C 16,6 C 64 % 68 % 1020,6 hPa 0,0 l/m 6,3 km/h (2 Bft) NW 315 11,5 C 17,5 C 13,3 km/h (3 Bft)
19.08.2019 06:40 22,7 C 17,6 C 16,6 C 64 % 69 % 1020,6 hPa 0,0 l/m 7,4 km/h (2 Bft) NW 315 11,8 C 17,6 C 13,3 km/h (3 Bft)
19.08.2019 06:38 22,7 C 17,6 C 16,7 C 64 % 69 % 1020,6 hPa 0,0 l/m 7,6 km/h (2 Bft) SW 225 11,8 C 17,6 C 14,5 km/h (3 Bft)
19.08.2019 06:36 22,7 C 17,6 C 16,7 C 64 % 69 % 1020,6 hPa 0,0 l/m 8,0 km/h (2 Bft) SW 225 11,8 C 17,6 C 14,5 km/h (3 Bft)
19.08.2019 06:34 22,7 C 17,7 C 16,7 C 64 % 69 % 1020,6 hPa 0,0 l/m 8,7 km/h (2 Bft) S-SW 202 11,9 C 17,7 C 13,7 km/h (3 Bft)
19.08.2019 06:32 22,7 C 17,7 C 16,8 C 64 % 69 % 1020,6 hPa 0,0 l/m 9,0 km/h (2 Bft) W 270 11,9 C 17,7 C 13,7 km/h (3 Bft)
19.08.2019 06:30 22,7 C 17,8 C 16,7 C 64 % 69 % 1020,2 hPa 0,0 l/m 9,8 km/h (2 Bft) W-SW 247 12,0 C 17,8 C 16,6 km/h (3 Bft)
19.08.2019 06:28 22,7 C 17,8 C 16,7 C 64 % 69 % 1020,2 hPa 0,0 l/m 9,2 km/h (2 Bft) S-SW 202 12,0 C 17,8 C 16,6 km/h (3 Bft)
19.08.2019 06:26 22,7 C 17,9 C 16,8 C 64 % 70 % 1020,2 hPa 0,0 l/m 9,2 km/h (2 Bft) SW 225 12,3 C 17,9 C 16,6 km/h (3 Bft)
19.08.2019 06:24 22,7 C 17,9 C 16,8 C 64 % 70 % 1020,2 hPa 0,0 l/m 8,4 km/h (2 Bft) S-SW 202 12,3 C 17,9 C 16,6 km/h (3 Bft)
19.08.2019 06:22 22,7 C 17,9 C 16,8 C 64 % 69 % 1020,2 hPa 0,0 l/m 7,4 km/h (2 Bft) SW 225 12,1 C 17,9 C 14,9 km/h (3 Bft)
19.08.2019 06:20 22,7 C 17,9 C 16,9 C 64 % 69 % 1020,2 hPa 0,0 l/m 6,9 km/h (2 Bft) S 180 12,1 C 17,9 C 14,9 km/h (3 Bft)
19.08.2019 06:18 22,7 C 17,9 C 16,9 C 64 % 69 % 1020,2 hPa 0,0 l/m 6,3 km/h (2 Bft) S 180 12,1 C 17,9 C 8,3 km/h (2 Bft)
19.08.2019 06:16 22,7 C 18,0 C 17,0 C 64 % 68 % 1020,2 hPa 0,0 l/m 6,6 km/h (2 Bft) W-SW 247 12,0 C 18,0 C 8,3 km/h (2 Bft)
19.08.2019 06:14 22,7 C 18,1 C 17,0 C 64 % 68 % 1020,2 hPa 0,0 l/m 6,9 km/h (2 Bft) SW 225 12,1 C 18,1 C 12,4 km/h (3 Bft)
19.08.2019 06:12 22,7 C 18,1 C 17,0 C 64 % 68 % 1020,2 hPa 0,0 l/m 7,7 km/h (2 Bft) W 270 12,1 C 18,1 C 21,2 km/h (4 Bft)
19.08.2019 06:10 22,7 C 18,4 C 17,0 C 64 % 66 % 1020,4 hPa 0,0 l/m 6,3 km/h (2 Bft) SW 225 11,9 C 18,4 C 21,2 km/h (4 Bft)
19.08.2019 06:08 22,7 C 18,4 C 17,0 C 64 % 66 % 1020,4 hPa 0,0 l/m 6,3 km/h (2 Bft) SW 225 11,9 C 18,4 C 21,2 km/h (4 Bft)
19.08.2019 06:06 22,7 C 18,4 C 17,0 C 64 % 66 % 1020,4 hPa 0,0 l/m 6,3 km/h (2 Bft) SW 225 11,9 C 18,4 C 21,2 km/h (4 Bft)
19.08.2019 06:04 22,7 C 18,4 C 17,0 C 64 % 66 % 1020,4 hPa 0,0 l/m 6,3 km/h (2 Bft) SW 225 11,9 C 18,4 C 21,2 km/h (4 Bft)
19.08.2019 06:02 22,7 C 18,4 C 17,0 C 64 % 66 % 1020,4 hPa 0,0 l/m 6,3 km/h (2 Bft) SW 225 11,9 C 18,4 C 21,2 km/h (4 Bft)
19.08.2019 06:00 22,7 C 18,4 C 17,0 C 64 % 66 % 1020,4 hPa 0,0 l/m 5,6 km/h (1 Bft) W 270 11,9 C 18,4 C 13,3 km/h (3 Bft)
19.08.2019 05:58 22,7 C 18,5 C 17,1 C 64 % 65 % 1020,4 hPa 0,0 l/m 5,5 km/h (1 Bft) W-SW 247 11,8 C 18,5 C 15,3 km/h (3 Bft)
19.08.2019 05:56 22,7 C 18,7 C 17,1 C 64 % 64 % 1020,4 hPa 0,0 l/m 4,7 km/h (1 Bft) W-SW 247 11,7 C 18,7 C 15,3 km/h (3 Bft)
19.08.2019 05:54 22,7 C 18,7 C 17,1 C 64 % 64 % 1020,4 hPa 0,0 l/m 5,0 km/h (1 Bft) SW 225 11,7 C 18,7 C 4,4 km/h (1 Bft)
19.08.2019 05:52 22,7 C 18,8 C 17,2 C 64 % 64 % 1020,4 hPa 0,0 l/m 5,1 km/h (1 Bft) W 270 11,8 C 18,8 C 4,6 km/h (1 Bft)
19.08.2019 05:50 22,7 C 18,8 C 17,2 C 64 % 64 % 1019,9 hPa 0,0 l/m 5,5 km/h (1 Bft) SW 225 11,8 C 18,8 C 6,8 km/h (2 Bft)
19.08.2019 05:48 22,7 C 18,9 C 17,2 C 64 % 64 % 1019,9 hPa 0,0 l/m 6,3 km/h (2 Bft) N-NW 337 11,9 C 18,9 C 6,8 km/h (2 Bft)
19.08.2019 05:46 22,7 C 19,0 C 17,2 C 64 % 63 % 1019,9 hPa 0,0 l/m 6,4 km/h (2 Bft) S-SW 202 11,8 C 19,0 C 14,9 km/h (3 Bft)
19.08.2019 05:44 22,7 C 19,0 C 17,2 C 64 % 63 % 1019,9 hPa 0,0 l/m 6,9 km/h (2 Bft) W 270 11,8 C 19,0 C 15,1 km/h (3 Bft)
19.08.2019 05:42 22,7 C 19,0 C 17,2 C 64 % 64 % 1019,9 hPa 0,0 l/m 6,8 km/h (2 Bft) O 90 12,0 C 19,0 C 15,1 km/h (3 Bft)
19.08.2019 05:40 22,7 C 19,0 C 17,2 C 64 % 64 % 1019,9 hPa 0,0 l/m 8,2 km/h (2 Bft) NW 315 12,0 C 19,0 C 16,8 km/h (3 Bft)
19.08.2019 05:38 22,7 C 19,0 C 17,3 C 64 % 64 % 1019,9 hPa 0,0 l/m 8,4 km/h (2 Bft) W-NW 292 12,0 C 19,0 C 16,8 km/h (3 Bft)
19.08.2019 05:36 22,7 C 19,0 C 17,3 C 64 % 64 % 1019,9 hPa 0,0 l/m 8,5 km/h (2 Bft) N-NW 337 12,0 C 19,0 C 32,6 km/h (5 Bft)
19.08.2019 05:34 22,7 C 19,1 C 17,3 C 64 % 64 % 1019,9 hPa 0,0 l/m 9,0 km/h (2 Bft) SW 225 12,1 C 19,1 C 11,6 km/h (2 Bft)
19.08.2019 05:32 22,7 C 19,1 C 17,3 C 64 % 64 % 1019,9 hPa 0,0 l/m 9,8 km/h (2 Bft) W 270 12,1 C 19,1 C 11,0 km/h (2 Bft)
19.08.2019 05:30 22,7 C 19,1 C 17,4 C 64 % 65 % 1019,5 hPa 0,0 l/m 9,3 km/h (2 Bft) N 360 12,4 C 19,1 C 11,4 km/h (2 Bft)
19.08.2019 05:28 22,7 C 19,0 C 17,4 C 64 % 67 % 1019,5 hPa 0,0 l/m 8,4 km/h (2 Bft) NW 315 12,7 C 19,0 C 11,4 km/h (2 Bft)
19.08.2019 05:26 22,7 C 19,0 C 17,5 C 64 % 67 % 1019,5 hPa 0,0 l/m 8,5 km/h (2 Bft) W-NW 292 12,7 C 19,0 C 18,9 km/h (3 Bft)
19.08.2019 05:24 22,7 C 19,0 C 17,5 C 64 % 68 % 1019,5 hPa 0,0 l/m 8,9 km/h (2 Bft) W-SW 247 13,0 C 19,0 C 21,0 km/h (4 Bft)
19.08.2019 05:22 22,7 C 19,0 C 17,6 C 64 % 68 % 1019,5 hPa 0,0 l/m 9,2 km/h (2 Bft) W-NW 292 13,0 C 19,0 C 23,0 km/h (4 Bft)
19.08.2019 05:20 22,7 C 19,1 C 17,6 C 64 % 68 % 1019,5 hPa 0,0 l/m 8,9 km/h (2 Bft) NW 315 13,1 C 19,1 C 23,0 km/h (4 Bft)
19.08.2019 05:18 22,7 C 19,1 C 17,7 C 64 % 68 % 1019,5 hPa 0,0 l/m 8,7 km/h (2 Bft) O-SO 112 13,1 C 19,1 C 22,4 km/h (4 Bft)
19.08.2019 05:16 22,7 C 19,1 C 17,7 C 64 % 69 % 1019,5 hPa 0,0 l/m 9,0 km/h (2 Bft) W 270 13,3 C 19,1 C 22,4 km/h (4 Bft)
19.08.2019 05:14 22,7 C 19,2 C 17,7 C 64 % 69 % 1019,5 hPa 0,0 l/m 8,4 km/h (2 Bft) SW 225 13,4 C 19,2 C 12,6 km/h (3 Bft)
19.08.2019 05:12 22,7 C 19,2 C 17,8 C 64 % 69 % 1019,5 hPa 0,0 l/m 7,7 km/h (2 Bft) W 270 13,4 C 19,2 C 12,6 km/h (3 Bft)
19.08.2019 05:10 22,7 C 19,2 C 17,8 C 64 % 69 % 1019,2 hPa 0,0 l/m 8,4 km/h (2 Bft) W-SW 247 13,4 C 19,2 C 22,0 km/h (4 Bft)
19.08.2019 05:08 22,7 C 19,3 C 17,8 C 64 % 69 % 1019,2 hPa 0,0 l/m 9,2 km/h (2 Bft) S-SW 202 13,5 C 19,3 C 28,4 km/h (4 Bft)
19.08.2019 05:06 22,7 C 19,3 C 17,7 C 64 % 70 % 1019,2 hPa 0,0 l/m 9,0 km/h (2 Bft) W 270 13,7 C 19,3 C 28,4 km/h (4 Bft)
19.08.2019 05:04 22,7 C 19,3 C 17,7 C 64 % 68 % 1019,2 hPa 0,0 l/m 8,9 km/h (2 Bft) W-SW 247 13,2 C 19,3 C 18,7 km/h (3 Bft)
19.08.2019 05:01 22,7 C 19,4 C 17,7 C 64 % 69 % 1019,2 hPa 0,0 l/m 8,7 km/h (2 Bft) W 270 13,6 C 19,4 C 17,8 km/h (3 Bft)
19.08.2019 05:00 22,7 C 19,4 C 17,7 C 64 % 68 % 1019,2 hPa 0,0 l/m 8,2 km/h (2 Bft) W-NW 292 13,3 C 19,4 C 14,3 km/h (3 Bft)
19.08.2019 04:58 22,7 C 19,5 C 17,7 C 64 % 69 % 1019,2 hPa 0,0 l/m 7,6 km/h (2 Bft) W 270 13,7 C 19,5 C 14,5 km/h (3 Bft)
19.08.2019 04:56 22,7 C 19,5 C 17,7 C 64 % 68 % 1019,2 hPa 0,0 l/m 6,4 km/h (2 Bft) NW 315 13,4 C 19,5 C 14,5 km/h (3 Bft)
19.08.2019 04:54 22,7 C 19,6 C 17,8 C 64 % 67 % 1019,2 hPa 0,0 l/m 5,6 km/h (1 Bft) S 180 13,3 C 19,6 C 11,6 km/h (2 Bft)
19.08.2019 04:52 22,7 C 19,7 C 17,8 C 64 % 67 % 1019,2 hPa 0,0 l/m 5,6 km/h (1 Bft) SW 225 13,4 C 19,7 C 18,5 km/h (3 Bft)
19.08.2019 04:50 22,7 C 19,8 C 17,8 C 64 % 66 % 1018,9 hPa 0,0 l/m 7,2 km/h (2 Bft) W 270 13,3 C 19,8 C 18,5 km/h (3 Bft)
19.08.2019 04:48 22,7 C 19,8 C 17,8 C 64 % 65 % 1018,9 hPa 0,0 l/m 6,8 km/h (2 Bft) NW 315 13,0 C 19,8 C 6,2 km/h (2 Bft)
19.08.2019 04:46 22,7 C 19,9 C 17,8 C 64 % 65 % 1018,9 hPa 0,0 l/m 7,2 km/h (2 Bft) N-NW 337 13,1 C 19,9 C 11,0 km/h (2 Bft)
19.08.2019 04:44 22,7 C 20,0 C 17,8 C 64 % 64 % 1018,9 hPa 0,0 l/m 8,7 km/h (2 Bft) N 360 13,0 C 20,0 C 12,6 km/h (3 Bft)
19.08.2019 04:42 22,7 C 20,1 C 17,9 C 64 % 65 % 1018,9 hPa 0,0 l/m 9,7 km/h (2 Bft) SW 225 13,3 C 20,1 C 20,7 km/h (4 Bft)
19.08.2019 04:40 22,7 C 20,2 C 17,8 C 64 % 64 % 1018,9 hPa 0,0 l/m 9,2 km/h (2 Bft) SW 225 13,2 C 20,2 C 20,7 km/h (4 Bft)
19.08.2019 04:38 22,7 C 20,4 C 17,9 C 64 % 63 % 1018,9 hPa 0,0 l/m 8,7 km/h (2 Bft) S-SW 202 13,1 C 20,4 C 13,9 km/h (3 Bft)
19.08.2019 04:36 22,7 C 20,5 C 18,0 C 64 % 63 % 1018,9 hPa 0,0 l/m 9,8 km/h (2 Bft) S-SO 157 13,2 C 20,5 C 30,9 km/h (5 Bft)
19.08.2019 04:34 22,7 C 20,5 C 17,9 C 64 % 63 % 1018,9 hPa 0,0 l/m 9,8 km/h (2 Bft) W 270 13,2 C 20,5 C 10,2 km/h (2 Bft)
19.08.2019 04:32 22,7 C 20,6 C 17,9 C 64 % 62 % 1018,9 hPa 0,0 l/m 8,9 km/h (2 Bft) SW 225 13,1 C 20,6 C 18,2 km/h (3 Bft)
19.08.2019 04:30 22,7 C 20,8 C 17,9 C 64 % 62 % 1017,8 hPa 0,0 l/m 8,9 km/h (2 Bft) S-SW 202 13,2 C 20,8 C 18,2 km/h (3 Bft)
19.08.2019 04:28 22,7 C 20,9 C 17,7 C 64 % 61 % 1017,8 hPa 0,0 l/m 8,0 km/h (2 Bft) W 270 13,1 C 20,9 C 13,7 km/h (3 Bft)
19.08.2019 04:26 22,8 C 21,0 C 17,6 C 64 % 62 % 1017,8 hPa 0,0 l/m 6,6 km/h (2 Bft) W-SW 247 13,4 C 21,0 C 23,4 km/h (4 Bft)
19.08.2019 04:24 22,8 C 21,0 C 17,4 C 64 % 61 % 1017,8 hPa 0,0 l/m 6,3 km/h (2 Bft) W-NW 292 13,2 C 21,0 C 10,8 km/h (2 Bft)
19.08.2019 04:22 22,8 C 21,0 C 17,4 C 64 % 61 % 1017,8 hPa 0,0 l/m 4,3 km/h (1 Bft) SW 225 13,2 C 21,0 C 8,9 km/h (2 Bft)
19.08.2019 04:20 22,7 C 21,0 C 17,5 C 64 % 61 % 1017,8 hPa 0,0 l/m 4,0 km/h (1 Bft) W-SW 247 13,2 C 21,0 C 7,3 km/h (2 Bft)
19.08.2019 04:18 22,8 C 21,0 C 17,6 C 64 % 61 % 1017,8 hPa 0,0 l/m 3,1 km/h (1 Bft) SW 225 13,2 C 21,0 C 9,8 km/h (2 Bft)
19.08.2019 04:16 22,8 C 21,0 C 17,7 C 64 % 61 % 1017,8 hPa 0,0 l/m 3,1 km/h (1 Bft) NW 315 13,2 C 21,0 C 11,4 km/h (2 Bft)
19.08.2019 04:14 22,7 C 21,0 C 17,8 C 64 % 61 % 1017,8 hPa 0,0 l/m 2,7 km/h (1 Bft) W-NW 292 13,2 C 21,0 C 11,4 km/h (2 Bft)
19.08.2019 04:12 22,8 C 21,1 C 18,0 C 64 % 60 % 1017,8 hPa 0,0 l/m 2,9 km/h (1 Bft) W-SW 247 13,0 C 21,1 C 7,3 km/h (2 Bft)
19.08.2019 04:10 22,8 C 21,1 C 18,1 C 64 % 60 % 1017,1 hPa 0,0 l/m 2,9 km/h (1 Bft) W 270 13,0 C 21,1 C 7,3 km/h (2 Bft)
19.08.2019 04:08 22,8 C 21,1 C 18,1 C 64 % 60 % 1017,1 hPa 0,0 l/m 2,9 km/h (1 Bft) NW 315 13,0 C 21,1 C 7,0 km/h (2 Bft)
19.08.2019 04:06 22,8 C 21,2 C 18,2 C 64 % 60 % 1017,1 hPa 0,0 l/m 3,2 km/h (1 Bft) N-NW 337 13,1 C 21,2 C 7,0 km/h (2 Bft)
19.08.2019 04:04 22,8 C 21,1 C 18,2 C 64 % 60 % 1017,1 hPa 0,0 l/m 3,1 km/h (1 Bft) W 270 13,0 C 21,1 C 8,1 km/h (2 Bft)
19.08.2019 04:02 22,8 C 21,2 C 18,2 C 64 % 60 % 1017,1 hPa 0,0 l/m 3,1 km/h (1 Bft) NW 315 13,1 C 21,2 C 8,1 km/h (2 Bft)
19.08.2019 04:00 22,8 C 21,2 C 18,2 C 64 % 60 % 1017,1 hPa 0,0 l/m 3,5 km/h (1 Bft) W 270 13,1 C 21,2 C 3,5 km/h (1 Bft)
19.08.2019 03:58 22,8 C 21,2 C 18,2 C 64 % 60 % 1017,1 hPa 0,0 l/m 4,7 km/h (1 Bft) W-NW 292 13,1 C 21,2 C 3,5 km/h (1 Bft)
19.08.2019 03:56 22,8 C 21,2 C 18,0 C 64 % 60 % 1017,1 hPa 0,0 l/m 4,8 km/h (1 Bft) S 180 13,1 C 21,2 C 6,8 km/h (2 Bft)
19.08.2019 03:54 22,8 C 21,2 C 18,0 C 64 % 60 % 1017,1 hPa 0,0 l/m 5,5 km/h (1 Bft) S 180 13,1 C 21,2 C 8,3 km/h (2 Bft)
19.08.2019 03:52 22,8 C 21,2 C 18,0 C 64 % 60 % 1017,1 hPa 0,0 l/m 5,8 km/h (2 Bft) W 270 13,1 C 21,2 C 8,3 km/h (2 Bft)
19.08.2019 03:50 22,8 C 21,3 C 18,0 C 64 % 60 % 1016,6 hPa 0,0 l/m 7,1 km/h (2 Bft) W 270 13,2 C 21,3 C 9,1 km/h (2 Bft)
19.08.2019 03:48 22,8 C 21,3 C 18,0 C 64 % 60 % 1016,6 hPa 0,0 l/m 7,6 km/h (2 Bft) W-NW 292 13,2 C 21,3 C 9,1 km/h (2 Bft)
19.08.2019 03:46 22,8 C 21,4 C 18,0 C 64 % 60 % 1016,6 hPa 0,0 l/m 8,4 km/h (2 Bft) S 180 13,3 C 21,4 C 21,6 km/h (4 Bft)
19.08.2019 03:44 22,8 C 21,5 C 18,1 C 64 % 59 % 1016,6 hPa 0,0 l/m 9,0 km/h (2 Bft) W-NW 292 13,1 C 21,5 C 11,4 km/h (2 Bft)
19.08.2019 03:42 22,8 C 21,5 C 18,1 C 64 % 59 % 1016,6 hPa 0,0 l/m 9,3 km/h (2 Bft) W-NW 292 13,1 C 21,5 C 13,3 km/h (3 Bft)
19.08.2019 03:40 22,8 C 21,6 C 18,1 C 64 % 59 % 1016,6 hPa 0,0 l/m 9,0 km/h (2 Bft) N-NW 337 13,2 C 21,6 C 21,6 km/h (4 Bft)
19.08.2019 03:38 22,8 C 21,6 C 18,1 C 64 % 59 % 1016,6 hPa 0,0 l/m 8,7 km/h (2 Bft) N-NW 337 13,2 C 21,6 C 21,6 km/h (4 Bft)
19.08.2019 03:36 22,8 C 21,7 C 18,0 C 64 % 59 % 1016,6 hPa 0,0 l/m 7,7 km/h (2 Bft) NW 315 13,3 C 21,7 C 14,9 km/h (3 Bft)
19.08.2019 03:34 22,8 C 21,8 C 18,0 C 64 % 58 % 1016,6 hPa 0,0 l/m 7,6 km/h (2 Bft) NW 315 13,2 C 21,8 C 9,5 km/h (2 Bft)
19.08.2019 03:32 22,8 C 21,8 C 18,0 C 64 % 58 % 1016,6 hPa 0,0 l/m 7,4 km/h (2 Bft) NW 315 13,2 C 21,8 C 7,9 km/h (2 Bft)
19.08.2019 03:30 22,8 C 21,9 C 17,8 C 64 % 58 % 1016,2 hPa 0,0 l/m 6,8 km/h (2 Bft) NW 315 13,3 C 21,9 C 16,2 km/h (3 Bft)
19.08.2019 03:28 22,8 C 21,9 C 17,7 C 64 % 58 % 1016,2 hPa 0,0 l/m 6,1 km/h (2 Bft) NW 315 13,3 C 21,9 C 16,2 km/h (3 Bft)
19.08.2019 03:26 22,8 C 21,9 C 17,7 C 64 % 57 % 1016,2 hPa 0,0 l/m 5,8 km/h (2 Bft) NW 315 13,0 C 21,9 C 12,6 km/h (3 Bft)
19.08.2019 03:24 22,8 C 21,9 C 17,5 C 64 % 57 % 1016,2 hPa 0,0 l/m 6,1 km/h (2 Bft) NW 315 13,0 C 21,9 C 12,6 km/h (3 Bft)
19.08.2019 03:22 22,8 C 21,9 C 17,5 C 64 % 57 % 1016,2 hPa 0,0 l/m 6,4 km/h (2 Bft) W-NW 292 13,0 C 21,9 C 8,3 km/h (2 Bft)
19.08.2019 03:20 22,8 C 22,0 C 17,6 C 64 % 57 % 1016,2 hPa 0,0 l/m 6,8 km/h (2 Bft) NW 315 13,1 C 22,0 C 9,5 km/h (2 Bft)
19.08.2019 03:18 22,8 C 22,1 C 17,5 C 64 % 57 % 1016,2 hPa 0,0 l/m 6,9 km/h (2 Bft) NW 315 13,2 C 22,1 C 12,2 km/h (2 Bft)
19.08.2019 03:16 22,8 C 22,0 C 17,4 C 64 % 57 % 1016,2 hPa 0,0 l/m 6,9 km/h (2 Bft) NW 315 13,1 C 22,0 C 12,2 km/h (2 Bft)
19.08.2019 03:14 22,8 C 21,9 C 17,3 C 64 % 57 % 1016,2 hPa 0,0 l/m 6,4 km/h (2 Bft) N-NW 337 13,0 C 21,9 C 12,2 km/h (2 Bft)
19.08.2019 03:12 22,8 C 21,8 C 17,1 C 64 % 57 % 1016,2 hPa 0,0 l/m 6,6 km/h (2 Bft) N 360 12,9 C 21,8 C 12,2 km/h (2 Bft)
19.08.2019 03:10 22,8 C 22,4 C 17,0 C 64 % 56 % 1015,9 hPa 0,0 l/m 4,8 km/h (1 Bft) NW 315 13,2 C 22,4 C 8,7 km/h (2 Bft)
19.08.2019 03:08 22,8 C 22,4 C 17,0 C 64 % 56 % 1015,9 hPa 0,0 l/m 4,8 km/h (1 Bft) NW 315 13,2 C 22,4 C 8,7 km/h (2 Bft)
19.08.2019 03:06 22,8 C 22,4 C 17,0 C 64 % 56 % 1015,9 hPa 0,0 l/m 4,8 km/h (1 Bft) NW 315 13,2 C 22,4 C 8,7 km/h (2 Bft)
19.08.2019 03:04 22,8 C 22,4 C 17,0 C 64 % 56 % 1015,9 hPa 0,0 l/m 4,8 km/h (1 Bft) NW 315 13,2 C 22,4 C 8,7 km/h (2 Bft)
19.08.2019 03:02 22,8 C 22,4 C 17,0 C 64 % 56 % 1015,9 hPa 0,0 l/m 4,8 km/h (1 Bft) NW 315 13,2 C 22,4 C 8,7 km/h (2 Bft)
19.08.2019 03:00 22,8 C 22,5 C 17,0 C 64 % 55 % 1015,9 hPa 0,0 l/m 4,7 km/h (1 Bft) NW 315 13,0 C 22,5 C 7,5 km/h (2 Bft)
19.08.2019 02:58 22,8 C 22,6 C 16,9 C 64 % 54 % 1015,9 hPa 0,0 l/m 4,0 km/h (1 Bft) NW 315 12,8 C 22,6 C 7,3 km/h (2 Bft)
19.08.2019 02:56 22,8 C 22,7 C 16,8 C 64 % 54 % 1015,9 hPa 0,0 l/m 3,9 km/h (1 Bft) N-NW 337 12,9 C 22,7 C 7,3 km/h (2 Bft)
19.08.2019 02:54 22,8 C 22,7 C 16,8 C 64 % 54 % 1015,9 hPa 0,0 l/m 3,7 km/h (1 Bft) NW 315 12,9 C 22,7 C 5,4 km/h (1 Bft)
19.08.2019 02:52 22,8 C 22,7 C 17,0 C 64 % 54 % 1015,9 hPa 0,0 l/m 3,5 km/h (1 Bft) N-NW 337 12,9 C 22,7 C 4,8 km/h (1 Bft)
19.08.2019 02:50 22,8 C 22,7 C 17,0 C 64 % 54 % 1015,7 hPa 0,0 l/m 4,0 km/h (1 Bft) NW 315 12,9 C 22,7 C 5,8 km/h (2 Bft)
19.08.2019 02:48 22,8 C 22,6 C 17,0 C 64 % 54 % 1015,7 hPa 0,0 l/m 4,3 km/h (1 Bft) NW 315 12,8 C 22,6 C 6,0 km/h (2 Bft)
19.08.2019 02:46 22,8 C 22,5 C 16,9 C 64 % 57 % 1015,7 hPa 0,0 l/m 4,7 km/h (1 Bft) NW 315 13,5 C 22,5 C 6,2 km/h (2 Bft)
19.08.2019 02:44 22,8 C 22,3 C 16,9 C 64 % 57 % 1015,7 hPa 0,0 l/m 5,1 km/h (1 Bft) NW 315 13,4 C 22,3 C 6,2 km/h (2 Bft)
19.08.2019 02:42 22,8 C 22,1 C 17,1 C 64 % 57 % 1015,7 hPa 0,0 l/m 5,8 km/h (2 Bft) N-NW 337 13,2 C 22,1 C 7,5 km/h (2 Bft)
19.08.2019 02:40 22,8 C 22,0 C 17,2 C 64 % 58 % 1015,7 hPa 0,0 l/m 6,1 km/h (2 Bft) NW 315 13,3 C 22,0 C 7,5 km/h (2 Bft)
19.08.2019 02:38 22,8 C 21,9 C 17,2 C 64 % 58 % 1015,7 hPa 0,0 l/m 6,6 km/h (2 Bft) NW 315 13,3 C 21,9 C 7,9 km/h (2 Bft)
19.08.2019 02:36 22,8 C 21,9 C 17,3 C 64 % 58 % 1015,7 hPa 0,0 l/m 7,1 km/h (2 Bft) NW 315 13,3 C 21,9 C 9,3 km/h (2 Bft)
19.08.2019 02:34 22,8 C 21,9 C 17,4 C 64 % 58 % 1015,7 hPa 0,0 l/m 7,2 km/h (2 Bft) NW 315 13,3 C 21,9 C 9,5 km/h (2 Bft)
19.08.2019 02:32 22,8 C 21,9 C 17,4 C 64 % 58 % 1015,7 hPa 0,0 l/m 7,2 km/h (2 Bft) NW 315 13,3 C 21,9 C 11,6 km/h (2 Bft)
19.08.2019 02:30 22,8 C 21,9 C 17,4 C 64 % 58 % 1015,4 hPa 0,0 l/m 7,2 km/h (2 Bft) NW 315 13,3 C 21,9 C 11,6 km/h (2 Bft)
19.08.2019 02:28 22,8 C 21,8 C 17,4 C 64 % 59 % 1015,4 hPa 0,0 l/m 7,2 km/h (2 Bft) NW 315 13,4 C 21,8 C 8,9 km/h (2 Bft)
19.08.2019 02:26 22,8 C 21,7 C 17,4 C 64 % 59 % 1015,4 hPa 0,0 l/m 7,2 km/h (2 Bft) NW 315 13,3 C 21,7 C 11,6 km/h (2 Bft)
19.08.2019 02:24 22,8 C 21,7 C 17,3 C 64 % 59 % 1015,4 hPa 0,0 l/m 7,2 km/h (2 Bft) NW 315 13,3 C 21,7 C 11,6 km/h (2 Bft)
19.08.2019 02:22 22,8 C 21,7 C 17,4 C 64 % 59 % 1015,4 hPa 0,0 l/m 7,7 km/h (2 Bft) NW 315 13,3 C 21,7 C 9,3 km/h (2 Bft)
19.08.2019 02:20 22,8 C 21,9 C 17,4 C 64 % 58 % 1015,4 hPa 0,0 l/m 8,5 km/h (2 Bft) NW 315 13,3 C 21,9 C 13,7 km/h (3 Bft)
19.08.2019 02:18 22,8 C 21,9 C 17,3 C 64 % 58 % 1015,4 hPa 0,0 l/m 9,0 km/h (2 Bft) NW 315 13,3 C 21,9 C 13,7 km/h (3 Bft)
19.08.2019 02:16 22,8 C 21,6 C 17,4 C 64 % 59 % 1015,4 hPa 0,0 l/m 8,9 km/h (2 Bft) W-NW 292 13,2 C 21,6 C 10,2 km/h (2 Bft)
19.08.2019 02:14 22,8 C 21,6 C 17,5 C 64 % 59 % 1015,4 hPa 0,0 l/m 9,3 km/h (2 Bft) W-NW 292 13,2 C 21,6 C 13,5 km/h (3 Bft)
19.08.2019 02:12 22,8 C 21,5 C 17,5 C 64 % 59 % 1015,4 hPa 0,0 l/m 9,3 km/h (2 Bft) NW 315 13,1 C 21,5 C 16,0 km/h (3 Bft)
19.08.2019 02:10 22,8 C 21,6 C 17,3 C 64 % 59 % 1015,6 hPa 0,0 l/m 9,3 km/h (2 Bft) NW 315 13,2 C 21,6 C 16,0 km/h (3 Bft)
19.08.2019 02:08 22,8 C 21,7 C 17,3 C 63 % 58 % 1015,6 hPa 0,0 l/m 9,7 km/h (2 Bft) NW 315 13,1 C 21,7 C 12,0 km/h (2 Bft)
19.08.2019 02:06 22,8 C 21,8 C 17,3 C 64 % 58 % 1015,6 hPa 0,0 l/m 10,1 km/h (2 Bft) NW 315 13,2 C 21,8 C 20,3 km/h (4 Bft)
19.08.2019 02:04 22,8 C 21,8 C 17,3 C 63 % 58 % 1015,6 hPa 0,0 l/m 10,3 km/h (2 Bft) NW 315 13,2 C 21,8 C 13,7 km/h (3 Bft)
19.08.2019 02:02 22,8 C 21,8 C 17,3 C 63 % 58 % 1015,6 hPa 0,0 l/m 9,8 km/h (2 Bft) S-SW 202 13,2 C 21,8 C 17,6 km/h (3 Bft)
19.08.2019 02:00 22,8 C 22,0 C 17,3 C 63 % 58 % 1015,6 hPa 0,0 l/m 9,3 km/h (2 Bft) NW 315 13,3 C 22,0 C 20,3 km/h (4 Bft)
19.08.2019 01:58 22,8 C 22,1 C 17,2 C 63 % 58 % 1015,6 hPa 0,0 l/m 8,5 km/h (2 Bft) W 270 13,4 C 22,1 C 20,3 km/h (4 Bft)
19.08.2019 01:56 22,8 C 21,7 C 17,2 C 63 % 58 % 1015,6 hPa 0,0 l/m 7,4 km/h (2 Bft) NW 315 13,1 C 21,7 C 19,1 km/h (3 Bft)
19.08.2019 01:54 22,8 C 21,8 C 17,2 C 63 % 58 % 1015,6 hPa 0,0 l/m 6,6 km/h (2 Bft) NW 315 13,2 C 21,8 C 10,2 km/h (2 Bft)
19.08.2019 01:52 22,8 C 21,9 C 17,1 C 63 % 58 % 1015,6 hPa 0,0 l/m 6,6 km/h (2 Bft) W-NW 292 13,3 C 21,9 C 10,2 km/h (2 Bft)
19.08.2019 01:50 22,9 C 21,9 C 17,1 C 63 % 58 % 1015,2 hPa 0,0 l/m 6,4 km/h (2 Bft) SW 225 13,3 C 21,9 C 8,7 km/h (2 Bft)
19.08.2019 01:48 22,9 C 21,8 C 17,2 C 63 % 58 % 1015,2 hPa 0,0 l/m 5,6 km/h (1 Bft) SW 225 13,2 C 21,8 C 8,7 km/h (2 Bft)
19.08.2019 01:46 22,8 C 21,7 C 17,4 C 63 % 58 % 1015,2 hPa 0,0 l/m 5,5 km/h (1 Bft) W 270 13,1 C 21,7 C 11,4 km/h (2 Bft)
19.08.2019 01:44 22,9 C 21,8 C 17,2 C 63 % 59 % 1015,2 hPa 0,0 l/m 5,3 km/h (1 Bft) NW 315 13,4 C 21,8 C 11,4 km/h (2 Bft)
19.08.2019 01:42 22,8 C 21,8 C 17,0 C 63 % 58 % 1015,2 hPa 0,0 l/m 4,8 km/h (1 Bft) N-NW 337 13,2 C 21,8 C 8,3 km/h (2 Bft)
19.08.2019 01:40 22,8 C 21,5 C 17,0 C 63 % 59 % 1015,2 hPa 0,0 l/m 4,8 km/h (1 Bft) SO 135 13,1 C 21,5 C 7,3 km/h (2 Bft)
19.08.2019 01:38 22,9 C 21,5 C 17,1 C 63 % 59 % 1015,2 hPa 0,0 l/m 5,0 km/h (1 Bft) N-NO 22 13,1 C 21,5 C 7,3 km/h (2 Bft)
19.08.2019 01:36 22,9 C 21,5 C 17,1 C 63 % 59 % 1015,2 hPa 0,0 l/m 5,1 km/h (1 Bft) N-NO 22 13,1 C 21,5 C 7,3 km/h (2 Bft)
19.08.2019 01:34 22,9 C 21,5 C 17,1 C 63 % 59 % 1015,2 hPa 0,0 l/m 5,1 km/h (1 Bft) N-NO 22 13,1 C 21,5 C 7,3 km/h (2 Bft)
19.08.2019 01:32 22,9 C 21,3 C 17,1 C 63 % 59 % 1015,2 hPa 0,0 l/m 5,0 km/h (1 Bft) NO 45 13,0 C 21,3 C 8,3 km/h (2 Bft)
19.08.2019 01:30 22,9 C 21,6 C 17,1 C 63 % 58 % 1014,6 hPa 0,0 l/m 4,8 km/h (1 Bft) N-NO 22 13,0 C 21,6 C 8,3 km/h (2 Bft)
19.08.2019 01:28 22,9 C 21,6 C 17,2 C 63 % 58 % 1014,6 hPa 0,0 l/m 4,8 km/h (1 Bft) N 360 13,0 C 21,6 C 6,4 km/h (2 Bft)
19.08.2019 01:26 22,9 C 21,8 C 17,2 C 63 % 57 % 1014,6 hPa 0,0 l/m 4,5 km/h (1 Bft) N-NW 337 12,9 C 21,8 C 6,4 km/h (2 Bft)
19.08.2019 01:24 22,9 C 21,8 C 17,2 C 63 % 57 % 1014,6 hPa 0,0 l/m 4,5 km/h (1 Bft) N-NW 337 12,9 C 21,8 C 6,4 km/h (2 Bft)
19.08.2019 01:22 22,9 C 22,0 C 17,5 C 63 % 57 % 1014,6 hPa 0,0 l/m 4,7 km/h (1 Bft) N-NW 337 13,1 C 22,0 C 5,8 km/h (2 Bft)
19.08.2019 01:20 22,9 C 22,4 C 17,5 C 63 % 56 % 1014,6 hPa 0,0 l/m 5,0 km/h (1 Bft) N 360 13,2 C 22,4 C 5,8 km/h (2 Bft)
19.08.2019 01:18 22,9 C 22,4 C 17,5 C 63 % 56 % 1014,6 hPa 0,0 l/m 5,5 km/h (1 Bft) N 360 13,2 C 22,4 C 5,8 km/h (2 Bft)
19.08.2019 01:16 22,9 C 22,6 C 17,8 C 63 % 53 % 1014,6 hPa 0,0 l/m 6,3 km/h (2 Bft) N-NO 22 12,5 C 22,6 C 7,7 km/h (2 Bft)
19.08.2019 01:14 22,9 C 22,7 C 17,9 C 63 % 53 % 1014,6 hPa 0,0 l/m 7,1 km/h (2 Bft) NO 45 12,6 C 22,7 C 7,7 km/h (2 Bft)
19.08.2019 01:12 22,9 C 22,8 C 18,0 C 63 % 53 % 1014,6 hPa 0,0 l/m 7,1 km/h (2 Bft) N 360 12,7 C 22,8 C 8,5 km/h (2 Bft)
19.08.2019 01:10 22,9 C 22,5 C 18,0 C 63 % 55 % 1014,8 hPa 0,0 l/m 7,4 km/h (2 Bft) N 360 13,0 C 22,5 C 11,2 km/h (2 Bft)
19.08.2019 01:08 22,9 C 22,4 C 18,0 C 63 % 55 % 1014,8 hPa 0,0 l/m 7,4 km/h (2 Bft) N-NW 337 12,9 C 22,4 C 11,2 km/h (2 Bft)
19.08.2019 01:06 22,9 C 22,2 C 17,8 C 63 % 56 % 1014,8 hPa 0,0 l/m 7,1 km/h (2 Bft) N 360 13,0 C 22,2 C 9,8 km/h (2 Bft)
19.08.2019 01:04 22,9 C 22,5 C 17,7 C 63 % 55 % 1014,8 hPa 0,0 l/m 6,8 km/h (2 Bft) N 360 13,0 C 22,5 C 10,0 km/h (2 Bft)
19.08.2019 01:02 22,9 C 22,7 C 17,6 C 63 % 53 % 1014,8 hPa 0,0 l/m 6,1 km/h (2 Bft) NO 45 12,6 C 22,7 C 10,0 km/h (2 Bft)
19.08.2019 01:00 22,9 C 22,7 C 17,6 C 63 % 53 % 1014,8 hPa 0,0 l/m 6,1 km/h (2 Bft) N-NO 22 12,6 C 22,7 C 12,0 km/h (2 Bft)
19.08.2019 00:58 22,9 C 22,5 C 17,6 C 63 % 53 % 1014,8 hPa 0,0 l/m 6,1 km/h (2 Bft) N-NO 22 12,4 C 22,5 C 12,0 km/h (2 Bft)
19.08.2019 00:56 22,9 C 22,6 C 17,9 C 63 % 53 % 1014,8 hPa 0,0 l/m 6,4 km/h (2 Bft) N-NO 22 12,5 C 22,6 C 7,5 km/h (2 Bft)
19.08.2019 00:54 22,9 C 22,8 C 18,0 C 63 % 53 % 1014,8 hPa 0,0 l/m 6,6 km/h (2 Bft) NO 45 12,7 C 22,8 C 7,0 km/h (2 Bft)
19.08.2019 00:52 22,9 C 22,9 C 18,2 C 63 % 52 % 1014,8 hPa 0,0 l/m 7,2 km/h (2 Bft) NO 45 12,5 C 22,9 C 9,5 km/h (2 Bft)
19.08.2019 00:50 22,9 C 22,9 C 18,3 C 63 % 52 % 1014,4 hPa 0,0 l/m 7,6 km/h (2 Bft) N-NO 22 12,5 C 22,9 C 10,2 km/h (2 Bft)
19.08.2019 00:48 22,9 C 22,9 C 18,5 C 63 % 52 % 1014,4 hPa 0,0 l/m 7,9 km/h (2 Bft) NO 45 12,5 C 22,9 C 11,0 km/h (2 Bft)
19.08.2019 00:46 22,9 C 22,9 C 18,6 C 63 % 52 % 1014,4 hPa 0,0 l/m 7,4 km/h (2 Bft) N-NW 337 12,5 C 22,9 C 11,0 km/h (2 Bft)
19.08.2019 00:44 22,9 C 22,8 C 18,6 C 63 % 52 % 1014,4 hPa 0,0 l/m 7,4 km/h (2 Bft) N-NW 337 12,4 C 22,8 C 11,0 km/h (2 Bft)
19.08.2019 00:42 22,9 C 23,0 C 18,6 C 63 % 51 % 1014,4 hPa 0,0 l/m 7,1 km/h (2 Bft) N-NO 22 12,3 C 23,0 C 10,2 km/h (2 Bft)
19.08.2019 00:40 22,9 C 23,7 C 18,4 C 63 % 49 % 1014,4 hPa 0,0 l/m 6,6 km/h (2 Bft) N-NW 337 12,3 C 23,7 C 10,2 km/h (2 Bft)
19.08.2019 00:38 22,9 C 24,4 C 18,3 C 63 % 46 % 1014,4 hPa 0,0 l/m 6,3 km/h (2 Bft) N-NO 22 12,0 C 24,4 C 11,6 km/h (2 Bft)
19.08.2019 00:36 22,9 C 24,7 C 18,4 C 63 % 45 % 1014,4 hPa 0,0 l/m 6,4 km/h (2 Bft) N-NO 22 12,0 C 24,7 C 11,6 km/h (2 Bft)
19.08.2019 00:34 22,9 C 24,8 C 18,7 C 63 % 45 % 1014,4 hPa 0,0 l/m 6,4 km/h (2 Bft) O-NO 67 12,0 C 24,8 C 10,8 km/h (2 Bft)
19.08.2019 00:32 22,9 C 25,0 C 18,9 C 63 % 45 % 1014,4 hPa 0,0 l/m 6,6 km/h (2 Bft) O-SO 112 12,2 C 25,0 C 10,8 km/h (2 Bft)
19.08.2019 00:30 23,0 C 25,2 C 18,8 C 63 % 43 % 1014,6 hPa 0,0 l/m 6,8 km/h (2 Bft) O-NO 67 11,7 C 25,2 C 11,0 km/h (2 Bft)
19.08.2019 00:28 23,0 C 25,2 C 18,7 C 63 % 43 % 1014,6 hPa 0,0 l/m 6,6 km/h (2 Bft) O 90 11,7 C 25,2 C 11,0 km/h (2 Bft)
19.08.2019 00:26 23,0 C 25,2 C 18,6 C 63 % 44 % 1014,6 hPa 0,0 l/m 6,6 km/h (2 Bft) SO 135 12,1 C 25,2 C 10,2 km/h (2 Bft)
19.08.2019 00:24 23,0 C 25,0 C 18,6 C 63 % 45 % 1014,6 hPa 0,0 l/m 6,6 km/h (2 Bft) O-SO 112 12,2 C 25,0 C 8,5 km/h (2 Bft)
19.08.2019 00:22 23,0 C 25,2 C 18,7 C 63 % 43 % 1014,6 hPa 0,0 l/m 6,9 km/h (2 Bft) O-SO 112 11,7 C 25,2 C 10,8 km/h (2 Bft)
19.08.2019 00:20 23,0 C 25,2 C 18,7 C 63 % 43 % 1014,6 hPa 0,0 l/m 7,6 km/h (2 Bft) O 90 11,7 C 25,2 C 10,8 km/h (2 Bft)
19.08.2019 00:18 23,0 C 25,1 C 18,9 C 63 % 43 % 1014,6 hPa 0,0 l/m 7,9 km/h (2 Bft) O-SO 112 11,6 C 25,1 C 8,9 km/h (2 Bft)
19.08.2019 00:16 23,0 C 25,4 C 19,1 C 63 % 43 % 1014,6 hPa 0,0 l/m 7,9 km/h (2 Bft) W-SW 247 11,9 C 25,4 C 16,2 km/h (3 Bft)
19.08.2019 00:14 23,0 C 25,7 C 19,0 C 63 % 41 % 1014,6 hPa 0,0 l/m 8,7 km/h (2 Bft) O-SO 112 11,4 C 25,7 C 13,7 km/h (3 Bft)
19.08.2019 00:12 23,0 C 25,6 C 18,7 C 63 % 41 % 1014,6 hPa 0,0 l/m 8,5 km/h (2 Bft) O-NO 67 11,4 C 25,6 C 13,7 km/h (3 Bft)
19.08.2019 00:10 23,0 C 25,3 C 18,3 C 63 % 44 % 1014,6 hPa 0,0 l/m 7,2 km/h (2 Bft) O-NO 67 12,2 C 25,3 C 6,0 km/h (2 Bft)
19.08.2019 00:08 23,0 C 25,3 C 18,3 C 63 % 44 % 1014,6 hPa 0,0 l/m 7,2 km/h (2 Bft) O-NO 67 12,2 C 25,3 C 6,0 km/h (2 Bft)
19.08.2019 00:06 23,0 C 25,3 C 18,3 C 63 % 44 % 1014,6 hPa 0,0 l/m 7,2 km/h (2 Bft) O-NO 67 12,2 C 25,3 C 6,0 km/h (2 Bft)
19.08.2019 00:04 23,0 C 25,3 C 18,3 C 63 % 44 % 1014,6 hPa 0,0 l/m 7,2 km/h (2 Bft) O-NO 67 12,2 C 25,3 C 6,0 km/h (2 Bft)
19.08.2019 00:02 22,9 C 25,3 C 18,3 C 63 % 44 % 1014,6 hPa 0,0 l/m 7,2 km/h (2 Bft) O-NO 67 12,2 C 25,3 C 8,7 km/h (2 Bft)
19.08.2019 00:00 23,0 C 25,4 C 18,3 C 63 % 45 % 1014,6 hPa 0,0 l/m 7,6 km/h (2 Bft) O-SO 112 12,6 C 25,4 C 13,7 km/h (3 Bft)
_ Min-Zeit 06:48 08:02 06:54 00:00 00:12 00:32 - 07:40 - - 06:52 08:02 07:38
Minimum _ 22,6 C 16,9 C 16,5 C 63 % 41 % 1014,4 hPa - 1,0 km/h (0 Bft) - - 11,3 C 16,9 C 0,0 km/h (0 Bft)
_ Max-Zeit 00:00 00:14 09:14 02:06 09:12 08:32 00:00 02:04 - - 05:06 00:14 05:36
Maximum _ 23,0 C 25,7 C 19,5 C 64 % 75 % 1021,4 hPa 0,0 l/m 10,3 km/h
NW (2 Bft)
- - 13,7 C 25,7 C 32,6 km/h
N-NW (5 Bft)
Durchschnitt _ 22,8 C 20,1 C 17,6 C 64 % 62 % 1018,1 hPa #0,0 l/m 6,0 km/h (2 Bft) SW - 12,6 C 20,1 C 10,6 km/h (2 Bft)